LGX37B EGPB-EKVG

Flight info

Callsign LGX37B
Flight time 0h 57m
Altitude 34000
Route SUM DCT PEMOS/M081F340 DCT MY
Aircraft B38M/M-SDE1FGHILORVWXY/HB1

Departure

Time 2026-04-21 08:57
Airport Sumburgh Airport (EGPB)

Arrival

Time 2026-04-21 09:54
Airport Vágar Airport (EKVG)
Time Latitude Longitude Altitude Speed Heading
2026-04-21 08:25 59.87993 -1.29271 43 ft 0 kts 163°
2026-04-21 08:50 59.87990 -1.29272 43 ft 3 kts 179°
2026-04-21 08:51 59.87961 -1.29383 41 ft 13 kts 244°
2026-04-21 08:51 59.87894 -1.29513 43 ft 14 kts 229°
2026-04-21 08:51 59.87873 -1.29629 42 ft 9 kts 171°
2026-04-21 08:51 59.87860 -1.29624 42 ft 0 kts 169°
2026-04-21 08:52 59.87881 -1.29586 42 ft 14 kts 335°
2026-04-21 08:52 59.87896 -1.29606 43 ft 0 kts 326°
2026-04-21 08:52 59.87911 -1.29626 41 ft 8 kts 324°
2026-04-21 08:52 59.87980 -1.29725 43 ft 17 kts 324°
2026-04-21 08:53 59.88088 -1.29903 46 ft 18 kts 308°
2026-04-21 08:53 59.88096 -1.30218 44 ft 28 kts 264°
2026-04-21 08:53 59.88065 -1.30550 45 ft 8 kts 244°
2026-04-21 08:53 59.88079 -1.30577 45 ft 1 kts 21°
2026-04-21 08:54 59.88079 -1.30565 45 ft 0 kts 82°
2026-04-21 08:55 59.88098 -1.30239 45 ft 60 kts 83°
2026-04-21 08:56 59.88176 -1.28924 44 ft 128 kts 83°
2026-04-21 08:56 59.88179 -1.28874 44 ft 130 kts 83°
2026-04-21 08:56 59.88200 -1.28521 67 ft 138 kts 82°
2026-04-21 08:57 59.88312 -1.26600 747 ft 138 kts 81°
2026-04-21 08:57 59.88508 -1.24594 1315 ft 158 kts 60°
2026-04-21 08:57 59.89362 -1.23264 2051 ft 166 kts 15°
2026-04-21 08:57 59.90505 -1.23689 2756 ft 182 kts 327°
2026-04-21 08:58 59.91456 -1.25518 3456 ft 200 kts 314°
2026-04-21 08:58 59.92357 -1.27786 4089 ft 217 kts 311°
2026-04-21 08:58 59.93307 -1.30261 4671 ft 232 kts 311°
2026-04-21 08:58 59.94338 -1.32839 5381 ft 242 kts 312°
2026-04-21 08:59 59.95416 -1.35424 6189 ft 243 kts 313°
2026-04-21 08:59 59.96496 -1.37990 6931 ft 246 kts 313°
2026-04-21 08:59 59.97605 -1.40630 7639 ft 249 kts 313°
2026-04-21 08:59 59.98724 -1.43307 8331 ft 253 kts 312°
2026-04-21 09:00 59.99856 -1.46029 8990 ft 256 kts 312°
2026-04-21 09:00 60.01003 -1.48785 9631 ft 259 kts 312°
2026-04-21 09:00 60.02161 -1.51574 10281 ft 261 kts 311°
2026-04-21 09:00 60.03324 -1.54380 10899 ft 263 kts 311°
2026-04-21 09:01 60.04502 -1.57218 11495 ft 265 kts 311°
2026-04-21 09:01 60.05689 -1.60079 12051 ft 268 kts 310°
2026-04-21 09:01 60.06881 -1.62962 12600 ft 270 kts 310°
2026-04-21 09:01 60.08080 -1.65868 13131 ft 271 kts 310°
2026-04-21 09:02 60.09287 -1.68802 13649 ft 273 kts 310°
2026-04-21 09:02 60.10502 -1.71749 14162 ft 275 kts 310°
2026-04-21 09:02 60.11723 -1.74709 14655 ft 276 kts 310°
2026-04-21 09:03 60.14167 -1.80653 15598 ft 279 kts 310°
2026-04-21 09:03 60.15404 -1.83672 16054 ft 280 kts 310°
2026-04-21 09:03 60.16641 -1.86695 16498 ft 281 kts 310°
2026-04-21 09:03 60.17890 -1.89750 16923 ft 283 kts 310°
2026-04-21 09:04 60.19137 -1.92804 17344 ft 284 kts 310°
2026-04-21 09:04 60.20391 -1.95880 17744 ft 285 kts 310°
2026-04-21 09:04 60.21649 -1.98970 18147 ft 286 kts 310°
2026-04-21 09:04 60.22915 -2.02082 18520 ft 288 kts 310°
2026-04-21 09:05 60.24185 -2.05209 18877 ft 290 kts 310°
2026-04-21 09:05 60.25461 -2.08359 19229 ft 291 kts 310°
2026-04-21 09:05 60.26744 -2.11527 19565 ft 293 kts 310°
2026-04-21 09:05 60.28036 -2.14725 19894 ft 295 kts 310°
2026-04-21 09:06 60.29333 -2.17934 20224 ft 296 kts 310°
2026-04-21 09:06 60.30620 -2.21119 20542 ft 297 kts 311°
2026-04-21 09:06 60.31928 -2.24364 20846 ft 299 kts 311°
2026-04-21 09:06 60.33244 -2.27633 21139 ft 300 kts 311°
2026-04-21 09:07 60.34561 -2.30912 21428 ft 301 kts 311°
2026-04-21 09:07 60.35884 -2.34212 21701 ft 303 kts 311°
2026-04-21 09:07 60.37214 -2.37534 21988 ft 305 kts 311°
2026-04-21 09:07 60.38549 -2.40872 22261 ft 306 kts 311°
2026-04-21 09:08 60.39889 -2.44227 22526 ft 307 kts 311°
2026-04-21 09:08 60.41235 -2.47601 22786 ft 309 kts 311°
2026-04-21 09:08 60.42591 -2.51005 23051 ft 311 kts 312°
2026-04-21 09:08 60.43948 -2.54416 23304 ft 312 kts 312°
2026-04-21 09:09 60.45311 -2.57850 23548 ft 313 kts 312°
2026-04-21 09:09 60.46675 -2.61295 23783 ft 314 kts 312°
2026-04-21 09:09 60.48047 -2.64762 24018 ft 315 kts 312°
2026-04-21 09:09 60.49422 -2.68239 24244 ft 317 kts 312°
2026-04-21 09:10 60.50802 -2.71734 24463 ft 318 kts 313°
2026-04-21 09:10 60.52186 -2.75247 24680 ft 319 kts 313°
2026-04-21 09:10 60.53556 -2.78729 24888 ft 321 kts 313°
2026-04-21 09:10 60.54954 -2.82288 25093 ft 322 kts 313°
2026-04-21 09:11 60.56352 -2.85854 25296 ft 324 kts 313°
2026-04-21 09:11 60.57766 -2.89457 25672 ft 328 kts 313°
2026-04-21 09:11 60.59205 -2.93132 26052 ft 340 kts 313°
2026-04-21 09:11 60.60713 -2.96978 26296 ft 356 kts 313°
2026-04-21 09:12 60.62287 -3.01007 26502 ft 371 kts 313°
2026-04-21 09:12 60.63925 -3.05219 26667 ft 387 kts 313°
2026-04-21 09:12 60.65629 -3.09615 26785 ft 403 kts 313°
2026-04-21 09:12 60.67401 -3.14192 26880 ft 418 kts 313°
2026-04-21 09:13 60.69231 -3.18924 26981 ft 431 kts 313°
2026-04-21 09:13 60.71095 -3.23762 27317 ft 436 kts 312°
2026-04-21 09:13 60.72979 -3.28666 27692 ft 440 kts 313°
2026-04-21 09:13 60.74876 -3.33605 28083 ft 443 kts 313°
2026-04-21 09:14 60.76787 -3.38582 28461 ft 446 kts 313°
2026-04-21 09:14 60.78711 -3.43606 28834 ft 449 kts 313°
2026-04-21 09:14 60.80641 -3.48661 29221 ft 452 kts 313°
2026-04-21 09:14 60.82579 -3.53751 29558 ft 454 kts 313°
2026-04-21 09:15 60.84530 -3.58881 29919 ft 457 kts 313°
2026-04-21 09:15 60.86485 -3.64034 30316 ft 458 kts 313°
2026-04-21 09:15 60.88418 -3.69143 30658 ft 459 kts 313°
2026-04-21 09:15 60.90371 -3.74321 31106 ft 458 kts 313°
2026-04-21 09:16 60.92321 -3.79498 31524 ft 458 kts 313°
2026-04-21 09:16 60.94267 -3.84674 31935 ft 457 kts 313°
2026-04-21 09:16 60.96216 -3.89864 32328 ft 458 kts 313°
2026-04-21 09:16 60.98156 -3.95055 32743 ft 457 kts 313°
2026-04-21 09:17 61.00091 -4.00253 33139 ft 457 kts 312°
2026-04-21 09:17 61.01972 -4.05564 33534 ft 459 kts 310°
2026-04-21 09:17 61.03761 -4.11022 33913 ft 460 kts 309°
2026-04-21 09:17 61.05509 -4.16553 34282 ft 460 kts 308°
2026-04-21 09:18 61.07272 -4.22057 34643 ft 460 kts 309°
2026-04-21 09:18 61.09066 -4.27484 34673 ft 464 kts 310°
2026-04-21 09:18 61.12749 -4.38504 34678 ft 466 kts 309°
2026-04-21 09:19 61.16367 -4.49623 34679 ft 464 kts 309°
2026-04-21 09:19 61.19948 -4.60674 34685 ft 461 kts 309°
2026-04-21 09:20 61.23537 -4.71714 34689 ft 461 kts 309°
2026-04-21 09:20 61.27101 -4.82778 34690 ft 461 kts 309°
2026-04-21 09:21 61.30658 -4.93884 34695 ft 460 kts 309°
2026-04-21 09:21 61.33607 -5.03112 34700 ft 460 kts 309°
2026-04-21 09:22 61.37140 -5.14225 34698 ft 460 kts 309°
2026-04-21 09:22 61.40655 -5.25343 34702 ft 459 kts 309°
2026-04-21 09:23 61.44144 -5.36421 34707 ft 458 kts 309°
2026-04-21 09:23 61.47637 -5.47568 34709 ft 458 kts 308°
2026-04-21 09:24 61.51109 -5.58711 34709 ft 457 kts 309°
2026-04-21 09:24 61.54577 -5.69876 34716 ft 457 kts 308°
2026-04-21 09:25 61.56307 -5.75469 34502 ft 458 kts 308°
2026-04-21 09:25 61.58073 -5.81170 33220 ft 466 kts 309°
2026-04-21 09:25 61.59809 -5.86824 31961 ft 457 kts 308°
2026-04-21 09:25 61.61528 -5.92441 30413 ft 456 kts 308°
2026-04-21 09:26 61.63246 -5.98052 28614 ft 457 kts 308°
2026-04-21 09:26 61.64969 -6.03684 26603 ft 460 kts 308°
2026-04-21 09:26 61.66679 -6.09305 25819 ft 440 kts 307°
2026-04-21 09:26 61.68259 -6.14559 25558 ft 412 kts 307°
2026-04-21 09:27 61.69762 -6.19540 25298 ft 394 kts 307°
2026-04-21 09:27 61.71200 -6.24282 25056 ft 373 kts 308°
2026-04-21 09:27 61.72552 -6.28745 24920 ft 348 kts 308°
2026-04-21 09:27 61.73787 -6.32848 24872 ft 323 kts 308°
2026-04-21 09:28 61.74955 -6.36737 24840 ft 305 kts 309°
2026-04-21 09:28 61.76077 -6.40458 24824 ft 297 kts 309°
2026-04-21 09:28 61.77208 -6.44189 24223 ft 304 kts 309°
2026-04-21 09:28 61.78363 -6.48011 23224 ft 313 kts 308°
2026-04-21 09:29 61.79547 -6.51958 22211 ft 321 kts 307°
2026-04-21 09:29 61.80750 -6.56004 21239 ft 327 kts 307°
2026-04-21 09:29 61.81966 -6.60104 20243 ft 330 kts 307°
2026-04-21 09:29 61.83190 -6.64234 19251 ft 332 kts 306°
2026-04-21 09:30 61.84416 -6.68370 18259 ft 332 kts 306°
2026-04-21 09:30 61.85642 -6.72507 17279 ft 331 kts 306°
2026-04-21 09:30 61.86859 -6.76622 16306 ft 329 kts 305°
2026-04-21 09:30 61.88067 -6.80721 15335 ft 327 kts 305°
2026-04-21 09:31 61.89270 -6.84800 14346 ft 325 kts 305°
2026-04-21 09:31 61.90466 -6.88865 13367 ft 324 kts 304°
2026-04-21 09:31 61.91651 -6.92903 12384 ft 321 kts 304°
2026-04-21 09:31 61.92813 -6.96868 11408 ft 319 kts 304°
2026-04-21 09:32 61.93983 -7.00870 10401 ft 318 kts 303°
2026-04-21 09:32 61.95139 -7.04837 9410 ft 314 kts 303°
2026-04-21 09:32 61.96287 -7.08774 8415 ft 311 kts 303°
2026-04-21 09:32 61.97426 -7.12679 7415 ft 309 kts 302°
2026-04-21 09:33 61.98553 -7.16554 6424 ft 307 kts 302°
2026-04-21 09:33 61.99645 -7.20322 6071 ft 286 kts 302°
2026-04-21 09:33 62.00638 -7.23756 5942 ft 260 kts 302°
2026-04-21 09:33 62.01548 -7.26905 5820 ft 240 kts 302°
2026-04-21 09:34 62.02395 -7.29838 5683 ft 228 kts 302°
2026-04-21 09:34 62.03205 -7.32645 5558 ft 220 kts 302°
2026-04-21 09:34 62.03994 -7.35381 5423 ft 214 kts 302°
2026-04-21 09:34 62.04765 -7.38063 5298 ft 209 kts 302°
2026-04-21 09:35 62.05530 -7.40725 5181 ft 208 kts 302°
2026-04-21 09:35 62.06287 -7.43362 5041 ft 210 kts 302°
2026-04-21 09:35 62.07043 -7.46005 4927 ft 210 kts 302°
2026-04-21 09:35 62.07799 -7.48648 4798 ft 207 kts 302°
2026-04-21 09:36 62.08552 -7.51283 4670 ft 206 kts 302°
2026-04-21 09:36 62.09303 -7.53908 4550 ft 207 kts 302°
2026-04-21 09:36 62.10043 -7.56498 4423 ft 209 kts 301°
2026-04-21 09:36 62.10894 -7.59000 4298 ft 206 kts 314°
2026-04-21 09:37 62.11961 -7.60995 4181 ft 203 kts 321°
2026-04-21 09:37 62.13066 -7.62925 4059 ft 206 kts 321°
2026-04-21 09:37 62.14170 -7.64860 3934 ft 208 kts 321°
2026-04-21 09:37 62.15273 -7.66790 3807 ft 207 kts 321°
2026-04-21 09:38 62.16336 -7.68840 3733 ft 208 kts 305°
2026-04-21 09:38 62.16697 -7.71723 3721 ft 205 kts 260°
2026-04-21 09:38 62.15995 -7.74331 3718 ft 203 kts 216°
2026-04-21 09:38 62.14639 -7.75136 3726 ft 207 kts 174°
2026-04-21 09:39 62.13417 -7.73717 3720 ft 208 kts 126°
2026-04-21 09:39 62.12772 -7.70974 3729 ft 206 kts 113°
2026-04-21 09:39 62.12473 -7.68017 3721 ft 205 kts 96°
2026-04-21 09:39 62.11945 -7.65220 3721 ft 205 kts 120°
2026-04-21 09:40 62.11401 -7.62358 3711 ft 207 kts 107°
2026-04-21 09:40 62.10994 -7.59411 3719 ft 206 kts 105°
2026-04-21 09:40 62.10622 -7.56572 3707 ft 187 kts 105°
2026-04-21 09:40 62.10293 -7.54043 3703 ft 171 kts 105°
2026-04-21 09:41 62.09988 -7.51679 3681 ft 161 kts 104°
2026-04-21 09:41 62.09757 -7.49419 3637 ft 149 kts 100°
2026-04-21 09:41 62.09584 -7.47198 3499 ft 148 kts 98°
2026-04-21 09:41 62.09463 -7.45026 3332 ft 147 kts 95°
2026-04-21 09:42 62.09378 -7.42875 3065 ft 146 kts 93°
2026-04-21 09:42 62.09284 -7.40726 2794 ft 150 kts 97°
2026-04-21 09:42 62.09023 -7.38489 2032 ft 163 kts 112°
2026-04-21 09:42 62.08464 -7.36319 1270 ft 168 kts 120°
2026-04-21 09:43 62.07955 -7.34190 813 ft 156 kts 115°
2026-04-21 09:43 62.07506 -7.32246 676 ft 134 kts 118°
2026-04-21 09:43 62.06941 -7.30761 1112 ft 131 kts 144°
2026-04-21 09:43 62.06046 -7.30097 1507 ft 146 kts 181°
2026-04-21 09:44 62.05099 -7.30911 2041 ft 153 kts 227°
2026-04-21 09:44 62.04584 -7.32935 2646 ft 159 kts 257°
2026-04-21 09:44 62.04377 -7.35311 3122 ft 183 kts 262°
2026-04-21 09:44 62.04194 -7.38391 3061 ft 229 kts 263°
2026-04-21 09:45 62.04003 -7.41899 3024 ft 243 kts 264°
2026-04-21 09:45 62.03819 -7.45334 2947 ft 229 kts 264°
2026-04-21 09:45 62.03649 -7.48593 2988 ft 218 kts 263°
2026-04-21 09:45 62.03485 -7.51750 2994 ft 211 kts 264°
2026-04-21 09:46 62.03323 -7.54833 3001 ft 205 kts 264°
2026-04-21 09:46 62.03164 -7.57874 3000 ft 204 kts 264°
2026-04-21 09:46 62.03005 -7.60887 3005 ft 206 kts 264°
2026-04-21 09:46 62.02847 -7.63879 3007 ft 207 kts 264°
2026-04-21 09:47 62.02692 -7.66884 3008 ft 203 kts 265°
2026-04-21 09:47 62.02986 -7.69789 2994 ft 201 kts 302°
2026-04-21 09:47 62.04045 -7.71780 3004 ft 204 kts 337°
2026-04-21 09:47 62.05439 -7.72446 3015 ft 210 kts 353°
2026-04-21 09:48 62.06868 -7.72778 3012 ft 209 kts 354°
2026-04-21 09:48 62.08298 -7.73068 3006 ft 204 kts 354°
2026-04-21 09:48 62.09731 -7.73346 3003 ft 202 kts 356°
2026-04-21 09:48 62.11165 -7.73316 2996 ft 206 kts
2026-04-21 09:49 62.12405 -7.71968 3010 ft 209 kts 50°
2026-04-21 09:49 62.12876 -7.69186 3021 ft 205 kts 94°
2026-04-21 09:49 62.12330 -7.66447 3030 ft 201 kts 127°
2026-04-21 09:49 62.11638 -7.63756 3008 ft 207 kts 110°
2026-04-21 09:50 62.11202 -7.60911 3008 ft 193 kts 106°
2026-04-21 09:50 62.11078 -7.60001 3006 ft 184 kts 106°
2026-04-21 09:50 62.10442 -7.53389 2724 ft 155 kts 96°
2026-04-21 09:51 62.10338 -7.51098 2471 ft 151 kts 95°
2026-04-21 09:51 62.10256 -7.48905 2225 ft 148 kts 96°
2026-04-21 09:51 62.09990 -7.46795 1744 ft 151 kts 110°
2026-04-21 09:51 62.09624 -7.44698 1342 ft 147 kts 110°
2026-04-21 09:52 62.09255 -7.42683 1112 ft 145 kts 112°
2026-04-21 09:52 62.08878 -7.40715 822 ft 141 kts 112°
2026-04-21 09:52 62.08536 -7.38761 644 ft 142 kts 109°
2026-04-21 09:52 62.08214 -7.36801 484 ft 140 kts 108°
2026-04-21 09:53 62.07880 -7.34875 480 ft 142 kts 116°
2026-04-21 09:53 62.07438 -7.33020 454 ft 136 kts 114°
2026-04-21 09:53 62.07090 -7.31091 414 ft 143 kts 109°
2026-04-21 09:53 62.06709 -7.29177 314 ft 141 kts 115°
2026-04-21 09:54 62.06308 -7.27527 294 ft 86 kts 120°
2026-04-21 09:54 62.06140 -7.26863 272 ft 43 kts 118°
2026-04-21 09:54 62.06072 -7.26598 264 ft 5 kts 82°
2026-04-21 09:54 62.06100 -7.26646 265 ft 17 kts 297°
2026-04-21 09:55 62.06186 -7.27012 274 ft 35 kts 297°
2026-04-21 09:55 62.06289 -7.27442 291 ft 30 kts 298°
2026-04-21 09:55 62.06380 -7.27804 298 ft 26 kts 298°
2026-04-21 09:55 62.06482 -7.28134 291 ft 26 kts 340°
2026-04-21 09:56 62.06620 -7.28087 288 ft 18 kts
2026-04-21 09:56 62.06675 -7.27965 291 ft 0 kts 30°